Notices

What's New in latest Release from April 7th, 2021:

- Updated Glossary, including Speed of Maximum Gust, and Total Hourly Precipitation

- Updated national and regional climate services offices contacts and prices information

- Addition of station inventory lists for 1981-2010, 1971-2000, and 1961-1990 Normals.

If you haven't already, please take our survey and provide feedback about our website: https://eccc.sondage-survey.ca/f/LanguageSelection.aspx?s=442ca660-fcf1-47c0-95a9-59707d6fd709

Hourly Data Report for March 20, 2019

MIRAMICHI RCS
NEW BRUNSWICK
Current Station Operator: ECCC - MSC

47°00'34.000" N
65°27'54.000" W
33.00 m
8100989
71744
ACQ

Download Data

Hourly Data (March 2019)
Hourly Data Report for March 20, 2019
TIME
LST
Temp Definition
°C
Dew Point Definition
°C
Rel Hum Definition
%
Precip. Amount Definition
mm

Wind Dir Definition
10's deg

Wind Spd Definition
km/h
Visibility Definition
km
Stn Press Definition
kPa
Hmdx Definition


Wind Chill Definition


Weather Definition


00:00 -10.4 -13.1 81 0.0 27 6   102.14   -14 LegendNANA
01:00 -11.0 -15.6 68 0.0 29 8   102.17   -16 LegendNANA
02:00 -11.5 -17.0 64 0.0 26 5   102.17   -15 LegendNANA
03:00 -12.1 -17.6 64 0.0 26 8   102.14   -17 LegendNANA
04:00 -12.6 -18.0 64 0.0 26 7   102.14   -17 LegendNANA
05:00 -13.8 -18.5 67 0.0 26 9   102.14   -19 LegendNANA
06:00 -14.0 -19.1 65 0.0 26 9   102.16   -20 LegendNANA
07:00 -14.1 -19.3 65 0.0 26 7   102.18   -19 LegendNANA
08:00 -12.0 -19.0 56 0.0 24 11   102.18   -18 LegendNANA
09:00 -8.5 -17.7 47 0.0 24 12   102.16   -14 LegendNANA
10:00 -4.9 -15.2 44 0.0 24 16   102.14   -11 LegendNANA
11:00 -1.9 -13.6 40 0.0 23 22   102.09   -8 LegendNANA
12:00 0.5 -12.8 36 0.0 24 19   102.00     LegendNANA
13:00 1.5 -12.3 35 0.0 23 24   101.91     LegendNANA
14:00 2.9 -9.6 39 0.0 24 27   101.79     LegendNANA
15:00 4.4 -10.0 34 0.0 26 26   101.72     LegendNANA
16:00 4.3 -9.6 36 0.0 24 23   101.70     LegendNANA
17:00 4.4 -9.4 36 0.0 24 19   101.69     LegendNANA
18:00 3.2 -8.8 41 0.0 24 14   101.73     LegendNANA
19:00 0.2 -9.4 48 0.0 20 13   101.75     LegendNANA
20:00 -0.9 -9.6 52 0.0 21 15   101.80   -6 LegendNANA
21:00 0.4 -10.0 46 0.0 22 21   101.81     LegendNANA
22:00 -0.5 -10.4 47 0.0 21 18   101.84   -6 LegendNANA
23:00 -0.8 -9.3 53 0.0 24 18   101.88   -6 LegendNANA

Notes on Data Quality.

Legend

  • E = Estimated
  • M = Missing
  • NA = Not Available*
  • [empty] = Indicates an unobserved value
Date modified: